Time,TemperatureF,DewpointF,PressureIn,WindDirection,WindDirectionDegrees,WindSpeedMPH,WindSpeedGustMPH,Humidity,HourlyPrecipIn,Conditions,Clouds,dailyrainin,SoftwareType,DateUTC
2013-08-06 00:01:00,62.2,47.3,30.00,West,270,3.5,3.5,58,0.00,BKN,,0.00,WeatherDisplay:10.37,2013-08-06 04:01:00,
2013-08-06 00:04:00,62.1,47.1,30.00,West,270,3.5,3.5,58,0.00,BKN,,0.00,WeatherDisplay:10.37,2013-08-06 04:04:00,
2013-08-06 00:09:00,61.9,46.9,30.00,West,270,3.5,3.5,58,0.00,BKN,,0.00,WeatherDisplay:10.37,2013-08-06 04:09:00,
2013-08-06 00:14:00,61.9,46.9,30.00,West,270,3.5,3.5,58,0.00,BKN,,0.00,WeatherDisplay:10.37,2013-08-06 04:14:00,
2013-08-06 00:19:00,61.9,46.9,30.00,West,270,3.5,3.5,58,0.00,BKN,,0.00,WeatherDisplay:10.37,2013-08-06 04:19:00,
2013-08-06 00:24:00,61.7,46.8,30.00,West,270,3.5,3.5,58,0.00,BKN,,0.00,WeatherDisplay:10.37,2013-08-06 04:24:00,
2013-08-06 00:29:00,61.5,46.6,30.00,West,270,3.5,3.5,58,0.00,BKN,,0.00,WeatherDisplay:10.37,2013-08-06 04:29:00,
2013-08-06 00:34:00,61.5,46.6,30.00,West,270,3.5,3.5,58,0.00,BKN,,0.00,WeatherDisplay:10.37,2013-08-06 04:34:00,
2013-08-06 00:39:00,61.7,46.8,30.00,West,270,3.5,3.5,58,0.00,BKN,,0.00,WeatherDisplay:10.37,2013-08-06 04:39:00,
2013-08-06 00:44:00,61.7,46.8,30.00,West,270,3.5,3.5,58,0.00,BKN,,0.00,WeatherDisplay:10.37,2013-08-06 04:44:00,
2013-08-06 00:49:00,61.5,46.6,30.00,West,270,3.5,3.5,58,0.00,BKN,,0.00,WeatherDisplay:10.37,2013-08-06 04:49:00,
2013-08-06 00:54:00,61.5,46.6,30.00,West,270,3.5,3.5,58,0.00,BKN,,0.00,WeatherDisplay:10.37,2013-08-06 04:54:00,
2013-08-06 00:59:00,61.3,46.4,30.00,West,270,3.5,3.5,58,0.00,BKN,,0.00,WeatherDisplay:10.37,2013-08-06 04:59:00,
2013-08-06 01:04:00,61.3,46.4,30.00,West,270,3.5,3.5,58,0.00,BKN,,0.00,WeatherDisplay:10.37,2013-08-06 05:04:00,
2013-08-06 01:09:00,61.0,46.1,30.00,West,270,3.5,3.5,58,0.00,BKN,,0.00,WeatherDisplay:10.37,2013-08-06 05:09:00,
2013-08-06 01:14:00,60.6,45.8,30.00,West,270,3.5,3.5,58,0.00,BKN,,0.00,WeatherDisplay:10.37,2013-08-06 05:14:00,
2013-08-06 01:19:00,60.4,45.6,30.00,West,270,3.5,3.5,58,0.00,BKN,,0.00,WeatherDisplay:10.37,2013-08-06 05:19:00,
2013-08-06 01:24:00,60.3,45.4,30.00,West,270,3.5,3.5,58,0.00,BKN,,0.00,WeatherDisplay:10.37,2013-08-06 05:24:00,
2013-08-06 01:29:00,59.9,45.1,30.00,West,270,3.5,3.5,58,0.00,BKN,,0.00,WeatherDisplay:10.37,2013-08-06 05:29:00,
2013-08-06 01:34:00,59.7,44.9,30.00,West,270,3.5,3.5,58,0.00,BKN,,0.00,WeatherDisplay:10.37,2013-08-06 05:34:00,
2013-08-06 01:39:00,59.5,44.7,30.00,West,270,3.5,3.5,58,0.00,BKN,,0.00,WeatherDisplay:10.37,2013-08-06 05:39:00,
2013-08-06 01:44:00,59.5,44.7,30.00,West,270,3.5,3.5,58,0.00,BKN,,0.00,WeatherDisplay:10.37,2013-08-06 05:44:00,
2013-08-06 01:49:00,59.4,44.6,30.00,West,270,3.5,3.5,58,0.00,BKN,,0.00,WeatherDisplay:10.37,2013-08-06 05:49:00,
2013-08-06 01:54:00,59.4,44.6,30.00,West,270,3.5,3.5,58,0.00,BKN,,0.00,WeatherDisplay:10.37,2013-08-06 05:54:00,
2013-08-06 01:59:00,59.2,44.4,30.00,West,270,3.5,3.5,58,0.00,BKN,,0.00,WeatherDisplay:10.37,2013-08-06 05:59:00,
2013-08-06 02:04:00,58.8,44.1,30.00,West,270,3.5,3.5,58,0.00,BKN,,0.00,WeatherDisplay:10.37,2013-08-06 06:04:00,
2013-08-06 02:09:00,58.8,44.1,30.00,West,270,3.5,3.5,58,0.00,BKN,,0.00,WeatherDisplay:10.37,2013-08-06 06:09:00,
2013-08-06 02:14:00,58.6,43.9,30.00,West,270,3.5,3.5,58,0.00,BKN,,0.00,WeatherDisplay:10.37,2013-08-06 06:14:00,
2013-08-06 02:19:00,58.5,43.7,30.03,West,270,3.5,3.5,58,0.00,BKN,,0.00,WeatherDisplay:10.37,2013-08-06 06:19:00,
2013-08-06 02:24:00,58.8,44.1,30.03,West,270,3.5,3.5,58,0.00,BKN,,0.00,WeatherDisplay:10.37,2013-08-06 06:24:00,
2013-08-06 02:29:00,58.3,43.6,30.03,West,270,3.5,3.5,58,0.00,BKN,,0.00,WeatherDisplay:10.37,2013-08-06 06:29:00,
2013-08-06 02:34:00,58.1,43.4,30.03,West,270,3.5,3.5,58,0.00,BKN,,0.00,WeatherDisplay:10.37,2013-08-06 06:34:00,
2013-08-06 02:39:00,57.9,43.2,30.03,West,270,3.5,3.5,58,0.00,BKN,,0.00,WeatherDisplay:10.37,2013-08-06 06:39:00,
2013-08-06 02:44:00,57.9,43.2,30.03,West,270,3.5,3.5,58,0.00,BKN,,0.00,WeatherDisplay:10.37,2013-08-06 06:44:00,
2013-08-06 02:49:00,57.7,43.1,30.03,West,270,3.5,3.5,58,0.00,BKN,,0.00,WeatherDisplay:10.37,2013-08-06 06:49:00,
2013-08-06 02:54:00,57.6,42.9,30.03,West,270,3.5,3.5,58,0.00,BKN,,0.00,WeatherDisplay:10.37,2013-08-06 06:54:00,
2013-08-06 02:59:00,57.4,42.7,30.03,West,270,3.5,3.5,58,0.00,BKN,,0.00,WeatherDisplay:10.37,2013-08-06 06:59:00,
2013-08-06 03:04:00,57.4,42.7,30.03,West,270,3.5,3.5,58,0.00,BKN,,0.00,WeatherDisplay:10.37,2013-08-06 07:04:00,
2013-08-06 03:09:00,57.2,42.5,30.03,West,270,3.5,3.5,58,0.00,BKN,,0.00,WeatherDisplay:10.37,2013-08-06 07:09:00,
2013-08-06 03:14:00,57.4,42.7,30.03,West,270,3.5,3.5,58,0.00,BKN,,0.00,WeatherDisplay:10.37,2013-08-06 07:14:00,
2013-08-06 03:19:00,57.6,42.9,30.03,West,270,3.5,3.5,58,0.00,BKN,,0.00,WeatherDisplay:10.37,2013-08-06 07:19:00,
2013-08-06 03:24:00,57.2,42.5,30.03,West,270,3.5,3.5,58,0.00,BKN,,0.00,WeatherDisplay:10.37,2013-08-06 07:24:00,
2013-08-06 03:29:00,57.2,42.5,30.03,West,270,3.5,3.5,58,0.00,BKN,,0.00,WeatherDisplay:10.37,2013-08-06 07:29:00,
2013-08-06 03:34:00,57.0,42.4,30.03,West,270,3.5,3.5,58,0.00,BKN,,0.00,WeatherDisplay:10.37,2013-08-06 07:34:00,
2013-08-06 03:39:00,56.8,42.2,30.03,West,270,3.5,3.5,58,0.00,BKN,,0.00,WeatherDisplay:10.37,2013-08-06 07:39:00,
2013-08-06 03:44:00,56.8,42.2,30.03,West,270,3.5,3.5,58,0.00,BKN,,0.00,WeatherDisplay:10.37,2013-08-06 07:44:00,
2013-08-06 03:49:00,56.8,42.2,30.03,West,270,3.5,3.5,58,0.00,BKN,,0.00,WeatherDisplay:10.37,2013-08-06 07:49:00,
2013-08-06 03:54:00,56.7,42.0,30.03,West,270,3.5,3.5,58,0.00,BKN,,0.00,WeatherDisplay:10.37,2013-08-06 07:54:00,
2013-08-06 03:59:00,56.7,42.0,30.03,West,270,3.5,3.5,58,0.00,BKN,,0.00,WeatherDisplay:10.37,2013-08-06 07:59:00,
2013-08-06 04:04:00,56.5,52.3,30.03,West,270,0.0,3.5,86,0.00,SCT,,0.00,WeatherDisplay:10.37,2013-08-06 08:04:00,
2013-08-06 04:09:00,56.5,52.3,30.03,West,270,0.0,0.0,86,0.00,SCT,,0.00,WeatherDisplay:10.37,2013-08-06 08:09:00,
2013-08-06 04:14:00,56.5,52.3,30.03,West,270,0.0,0.0,86,0.00,SCT,,0.00,WeatherDisplay:10.37,2013-08-06 08:14:00,
2013-08-06 04:19:00,56.3,52.2,30.03,West,270,0.0,0.0,86,0.00,SCT,,0.00,WeatherDisplay:10.37,2013-08-06 08:19:00,
2013-08-06 04:24:00,56.3,52.2,30.03,West,270,0.0,0.0,86,0.00,SCT,,0.00,WeatherDisplay:10.37,2013-08-06 08:24:00,
2013-08-06 04:29:00,56.3,52.2,30.03,West,270,0.0,0.0,86,0.00,SCT,,0.00,WeatherDisplay:10.37,2013-08-06 08:29:00,
2013-08-06 04:34:00,56.3,52.2,30.03,West,270,0.0,0.0,86,0.00,SCT,,0.00,WeatherDisplay:10.37,2013-08-06 08:34:00,
2013-08-06 04:39:00,56.3,52.2,30.03,West,270,0.0,0.0,86,0.00,SCT,,0.00,WeatherDisplay:10.37,2013-08-06 08:39:00,
2013-08-06 04:44:00,56.1,52.0,30.03,West,270,0.0,0.0,86,0.00,SCT,,0.00,WeatherDisplay:10.37,2013-08-06 08:44:00,
2013-08-06 04:49:00,56.3,52.2,30.03,West,270,0.0,0.0,86,0.00,SCT,,0.00,WeatherDisplay:10.37,2013-08-06 08:49:00,
2013-08-06 04:54:00,56.1,52.0,30.03,West,270,0.0,0.0,86,0.00,SCT,,0.00,WeatherDisplay:10.37,2013-08-06 08:54:00,
2013-08-06 04:59:00,55.9,51.8,30.03,West,270,0.0,0.0,86,0.00,SCT,,0.00,WeatherDisplay:10.37,2013-08-06 08:59:00,
2013-08-06 05:04:00,55.8,51.6,30.03,West,270,0.0,0.0,86,0.00,SCT,,0.00,WeatherDisplay:10.37,2013-08-06 09:04:00,
2013-08-06 05:09:00,55.6,51.5,30.03,West,270,0.0,0.0,86,0.00,SCT,,0.00,WeatherDisplay:10.37,2013-08-06 09:09:00,
2013-08-06 05:14:00,55.6,51.5,30.03,West,270,0.0,0.0,86,0.00,SCT,,0.00,WeatherDisplay:10.37,2013-08-06 09:14:00,
2013-08-06 05:19:00,55.8,51.6,30.03,West,270,0.0,0.0,86,0.00,SCT,,0.00,WeatherDisplay:10.37,2013-08-06 09:19:00,
2013-08-06 05:24:00,55.4,51.3,30.03,West,270,0.0,0.0,86,0.00,SCT,,0.00,WeatherDisplay:10.37,2013-08-06 09:24:00,
2013-08-06 05:29:00,55.2,51.1,30.03,West,270,0.0,0.0,86,0.00,SCT,,0.00,WeatherDisplay:10.37,2013-08-06 09:29:00,
2013-08-06 05:34:00,55.2,52.0,30.06,West,270,0.0,0.0,89,0.00,SCT,,0.00,WeatherDisplay:10.37,2013-08-06 09:34:00,
2013-08-06 05:39:00,55.0,51.9,30.06,West,270,0.0,0.0,89,0.00,SCT,,0.00,WeatherDisplay:10.37,2013-08-06 09:39:00,
2013-08-06 05:44:00,55.0,51.9,30.06,West,270,0.0,0.0,89,0.00,SCT,,0.00,WeatherDisplay:10.37,2013-08-06 09:44:00,
2013-08-06 05:49:00,54.9,51.7,30.06,West,270,0.0,0.0,89,0.00,SCT,,0.00,WeatherDisplay:10.37,2013-08-06 09:49:00,
2013-08-06 05:54:00,54.9,51.7,30.06,West,270,0.0,0.0,89,0.00,SCT,,0.00,WeatherDisplay:10.37,2013-08-06 09:54:00,
2013-08-06 05:59:00,54.7,51.5,30.06,West,270,0.0,0.0,89,0.00,SCT,,0.00,WeatherDisplay:10.37,2013-08-06 09:59:00,
2013-08-06 06:04:00,54.9,51.7,30.06,West,270,0.0,0.0,89,0.00,SCT,,0.00,WeatherDisplay:10.37,2013-08-06 10:04:00,
2013-08-06 06:09:00,54.9,51.7,30.06,West,270,0.0,0.0,89,0.00,SCT,,0.00,WeatherDisplay:10.37,2013-08-06 10:09:00,
2013-08-06 06:14:00,54.7,51.5,30.06,West,270,0.0,0.0,89,0.00,SCT,,0.00,WeatherDisplay:10.37,2013-08-06 10:14:00,
2013-08-06 06:19:00,54.5,51.3,30.06,West,270,0.0,0.0,89,0.00,SCT,,0.00,WeatherDisplay:10.37,2013-08-06 10:19:00,
2013-08-06 06:24:00,54.5,51.3,30.06,West,270,0.0,0.0,89,0.00,SCT,,0.00,WeatherDisplay:10.37,2013-08-06 10:24:00,
2013-08-06 06:29:00,54.5,51.3,30.06,West,270,0.0,0.0,89,0.00,SCT,,0.00,WeatherDisplay:10.37,2013-08-06 10:29:00,
2013-08-06 06:34:00,54.3,51.1,30.06,West,270,0.0,0.0,89,0.00,SCT,,0.00,WeatherDisplay:10.37,2013-08-06 10:34:00,
2013-08-06 06:39:00,54.5,51.3,30.06,West,270,0.0,0.0,89,0.00,SCT,,0.00,WeatherDisplay:10.37,2013-08-06 10:39:00,
2013-08-06 06:44:00,54.5,51.3,30.06,West,270,0.0,0.0,89,0.00,SCT,,0.00,WeatherDisplay:10.37,2013-08-06 10:44:00,
2013-08-06 06:49:00,54.7,51.5,30.06,West,270,0.0,0.0,89,0.00,SCT,,0.00,WeatherDisplay:10.37,2013-08-06 10:49:00,
2013-08-06 06:54:00,55.0,51.9,30.06,West,270,0.0,0.0,89,0.00,SCT,,0.00,WeatherDisplay:10.37,2013-08-06 10:54:00,
2013-08-06 06:59:00,55.2,52.0,30.06,West,270,0.0,0.0,89,0.00,SCT,,0.00,WeatherDisplay:10.37,2013-08-06 10:59:00,
2013-08-06 07:04:00,55.4,52.2,30.06,West,270,0.0,0.0,89,0.00,SCT,,0.00,WeatherDisplay:10.37,2013-08-06 11:04:00,
2013-08-06 07:09:00,55.4,52.2,30.06,West,270,0.0,0.0,89,0.00,SCT,,0.00,WeatherDisplay:10.37,2013-08-06 11:09:00,
2013-08-06 07:14:00,55.4,52.2,30.06,West,270,0.0,0.0,89,0.00,SCT,,0.00,WeatherDisplay:10.37,2013-08-06 11:14:00,
2013-08-06 07:19:00,55.6,52.4,30.09,West,270,0.0,0.0,89,0.00,SCT,,0.00,WeatherDisplay:10.37,2013-08-06 11:19:00,
2013-08-06 07:24:00,55.9,52.7,30.09,West,270,0.0,0.0,89,0.00,SCT,,0.00,WeatherDisplay:10.37,2013-08-06 11:24:00,
2013-08-06 07:29:00,56.1,52.9,30.09,West,270,0.0,0.0,89,0.00,SCT,,0.00,WeatherDisplay:10.37,2013-08-06 11:29:00,
2013-08-06 07:34:00,56.5,53.3,30.09,West,270,0.0,0.0,89,0.00,SCT,,0.00,WeatherDisplay:10.37,2013-08-06 11:34:00,
2013-08-06 07:39:00,56.8,53.6,30.09,West,270,0.0,0.0,89,0.00,SCT,,0.00,WeatherDisplay:10.37,2013-08-06 11:39:00,
2013-08-06 07:44:00,57.2,54.0,30.09,West,270,0.0,0.0,89,0.00,SCT,,0.00,WeatherDisplay:10.37,2013-08-06 11:44:00,
2013-08-06 07:49:00,57.6,54.3,30.09,West,270,0.0,0.0,89,0.00,SCT,,0.00,WeatherDisplay:10.37,2013-08-06 11:49:00,
2013-08-06 07:54:00,57.7,54.5,30.09,West,270,0.0,0.0,89,0.00,SCT,,0.00,WeatherDisplay:10.37,2013-08-06 11:54:00,
2013-08-06 07:59:00,57.9,54.7,30.09,West,270,0.0,0.0,89,0.00,SCT,,0.00,WeatherDisplay:10.37,2013-08-06 11:59:00,
2013-08-06 08:04:00,58.1,49.9,30.09,West,270,0.0,0.0,74,0.00,SCT,,0.00,WeatherDisplay:10.37,2013-08-06 12:04:00,
2013-08-06 08:09:00,58.3,50.0,30.09,West,270,0.0,0.0,74,0.00,SCT,,0.00,WeatherDisplay:10.37,2013-08-06 12:09:00,
2013-08-06 08:14:00,58.6,50.4,30.09,West,270,0.0,0.0,74,0.00,SCT,,0.00,WeatherDisplay:10.37,2013-08-06 12:14:00,
2013-08-06 08:19:00,58.8,50.5,30.09,West,270,0.0,0.0,74,0.00,SCT,,0.00,WeatherDisplay:10.37,2013-08-06 12:19:00,
2013-08-06 08:24:00,59.0,50.7,30.09,West,270,0.0,0.0,74,0.00,SCT,,0.00,WeatherDisplay:10.37,2013-08-06 12:24:00,
2013-08-06 08:29:00,59.2,50.9,30.09,West,270,0.0,0.0,74,0.00,SCT,,0.00,WeatherDisplay:10.37,2013-08-06 12:29:00,
2013-08-06 08:34:00,59.5,51.2,30.09,West,270,0.0,0.0,74,0.00,SCT,,0.00,WeatherDisplay:10.37,2013-08-06 12:34:00,
2013-08-06 08:39:00,59.9,51.6,30.09,West,270,0.0,0.0,74,0.00,SCT,,0.00,WeatherDisplay:10.37,2013-08-06 12:39:00,
2013-08-06 08:44:00,60.1,51.8,30.09,West,270,0.0,0.0,74,0.00,SCT,,0.00,WeatherDisplay:10.37,2013-08-06 12:44:00,
2013-08-06 08:49:00,60.4,52.1,30.09,West,270,0.0,0.0,74,0.00,SCT,,0.00,WeatherDisplay:10.37,2013-08-06 12:49:00,
2013-08-06 08:54:00,60.8,52.5,30.09,West,270,0.0,0.0,74,0.00,SCT,,0.00,WeatherDisplay:10.37,2013-08-06 12:54:00,
2013-08-06 08:59:00,61.0,52.6,30.09,West,270,0.0,0.0,74,0.00,SCT,,0.00,WeatherDisplay:10.37,2013-08-06 12:59:00,
2013-08-06 09:04:00,61.5,53.2,30.09,West,270,0.0,0.0,74,0.00,SCT,,0.00,WeatherDisplay:10.37,2013-08-06 13:04:00,
2013-08-06 09:09:00,61.7,53.3,30.09,West,270,0.0,0.0,74,0.00,SCT,,0.00,WeatherDisplay:10.37,2013-08-06 13:09:00,
2013-08-06 09:14:00,61.9,53.5,30.09,West,270,0.0,0.0,74,0.00,SCT,,0.00,WeatherDisplay:10.37,2013-08-06 13:14:00,
2013-08-06 09:19:00,62.4,54.0,30.09,West,270,0.0,0.0,74,0.00,SCT,,0.00,WeatherDisplay:10.37,2013-08-06 13:19:00,
2013-08-06 09:24:00,62.6,54.2,30.09,West,270,0.0,0.0,74,0.00,SCT,,0.00,WeatherDisplay:10.37,2013-08-06 13:24:00,
2013-08-06 09:29:00,62.8,54.4,30.09,West,270,0.0,0.0,74,0.00,SCT,,0.00,WeatherDisplay:10.37,2013-08-06 13:29:00,
2013-08-06 09:34:00,63.0,54.5,30.09,West,270,0.0,0.0,74,0.00,SCT,,0.00,WeatherDisplay:10.37,2013-08-06 13:34:00,
2013-08-06 09:39:00,63.5,55.1,30.09,West,270,0.0,0.0,74,0.00,SCT,,0.00,WeatherDisplay:10.37,2013-08-06 13:39:00,
2013-08-06 09:44:00,63.9,55.4,30.09,West,270,0.0,0.0,74,0.00,SCT,,0.00,WeatherDisplay:10.37,2013-08-06 13:44:00,
2013-08-06 09:49:00,64.4,55.9,30.09,West,270,0.0,0.0,74,0.00,SCT,,0.00,WeatherDisplay:10.37,2013-08-06 13:49:00,
2013-08-06 09:54:00,64.6,56.1,30.09,West,270,0.0,0.0,74,0.00,SCT,,0.00,WeatherDisplay:10.37,2013-08-06 13:54:00,
2013-08-06 09:59:00,64.9,56.5,30.09,West,270,0.0,0.0,74,0.00,SCT,,0.00,WeatherDisplay:10.37,2013-08-06 13:59:00,
2013-08-06 10:04:00,65.3,55.3,30.06,North,350,4.6,4.6,70,0.00,SCT,,0.00,WeatherDisplay:10.37,2013-08-06 14:04:00,
2013-08-06 10:09:00,65.8,55.8,30.06,North,350,4.6,4.6,70,0.00,SCT,,0.00,WeatherDisplay:10.37,2013-08-06 14:09:00,
2013-08-06 10:14:00,66.4,56.3,30.06,North,350,4.6,4.6,70,0.00,SCT,,0.00,WeatherDisplay:10.37,2013-08-06 14:14:00,
2013-08-06 10:19:00,66.6,56.5,30.06,North,350,4.6,4.6,70,0.00,SCT,,0.00,WeatherDisplay:10.37,2013-08-06 14:19:00,
2013-08-06 10:24:00,66.7,56.6,30.06,North,350,4.6,4.6,70,0.00,SCT,,0.00,WeatherDisplay:10.37,2013-08-06 14:24:00,
2013-08-06 10:29:00,66.7,56.6,30.06,North,350,4.6,4.6,70,0.00,SCT,,0.00,WeatherDisplay:10.37,2013-08-06 14:29:00,
2013-08-06 10:34:00,67.1,57.0,30.06,North,350,4.6,4.6,70,0.00,SCT,,0.00,WeatherDisplay:10.37,2013-08-06 14:34:00,
2013-08-06 10:39:00,67.6,57.5,30.06,North,350,4.6,4.6,70,0.00,SCT,,0.00,WeatherDisplay:10.37,2013-08-06 14:39:00,
2013-08-06 10:44:00,67.8,57.7,30.06,North,350,4.6,4.6,70,0.00,SCT,,0.00,WeatherDisplay:10.37,2013-08-06 14:44:00,
2013-08-06 10:49:00,68.2,58.0,30.06,North,350,4.6,4.6,70,0.00,SCT,,0.00,WeatherDisplay:10.37,2013-08-06 14:49:00,
2013-08-06 10:54:00,68.7,58.5,30.06,North,350,4.6,4.6,70,0.00,SCT,,0.00,WeatherDisplay:10.37,2013-08-06 14:54:00,
2013-08-06 10:59:00,68.9,58.7,30.06,North,350,4.6,4.6,70,0.00,SCT,,0.00,WeatherDisplay:10.37,2013-08-06 14:59:00,
2013-08-06 11:04:00,69.3,59.1,30.06,North,350,4.6,4.6,70,0.00,SCT,,0.00,WeatherDisplay:10.37,2013-08-06 15:04:00,
2013-08-06 11:09:00,69.4,59.2,30.06,North,350,4.6,4.6,70,0.00,SCT,,0.00,WeatherDisplay:10.37,2013-08-06 15:09:00,
2013-08-06 11:14:00,69.8,59.6,30.06,North,350,4.6,4.6,70,0.00,SCT,,0.00,WeatherDisplay:10.37,2013-08-06 15:14:00,
2013-08-06 11:19:00,70.3,60.1,30.06,North,350,4.6,4.6,70,0.00,SCT,,0.00,WeatherDisplay:10.37,2013-08-06 15:19:00,
2013-08-06 11:24:00,70.3,60.1,30.06,North,350,4.6,4.6,70,0.00,SCT,,0.00,WeatherDisplay:10.37,2013-08-06 15:24:00,
2013-08-06 11:29:00,70.3,60.1,30.06,North,350,4.6,4.6,70,0.00,SCT,,0.00,WeatherDisplay:10.37,2013-08-06 15:29:00,
2013-08-06 11:34:00,70.5,60.3,30.06,North,350,4.6,4.6,70,0.00,SCT,,0.00,WeatherDisplay:10.37,2013-08-06 15:34:00,
2013-08-06 11:39:00,70.7,60.4,30.06,North,350,4.6,4.6,70,0.00,SCT,,0.00,WeatherDisplay:10.37,2013-08-06 15:39:00,
2013-08-06 11:44:00,70.9,60.6,30.06,North,350,4.6,4.6,70,0.00,SCT,,0.00,WeatherDisplay:10.37,2013-08-06 15:44:00,
2013-08-06 11:49:00,70.7,60.4,30.06,North,350,4.6,4.6,70,0.00,SCT,,0.00,WeatherDisplay:10.37,2013-08-06 15:49:00,
2013-08-06 11:54:00,71.1,60.8,30.06,North,350,4.6,4.6,70,0.00,SCT,,0.00,WeatherDisplay:10.37,2013-08-06 15:54:00,
2013-08-06 11:59:00,71.2,61.0,30.06,North,350,4.6,4.6,70,0.00,SCT,,0.00,WeatherDisplay:10.37,2013-08-06 15:59:00,
2013-08-06 12:04:00,71.6,61.3,30.06,North,350,4.6,4.6,70,0.00,SCT,,0.00,WeatherDisplay:10.37,2013-08-06 16:04:00,
2013-08-06 12:09:00,72.0,61.6,30.06,North,350,4.6,4.6,70,0.00,SCT,,0.00,WeatherDisplay:10.37,2013-08-06 16:09:00,
2013-08-06 12:14:00,72.3,62.0,30.06,North,350,4.6,4.6,70,0.00,SCT,,0.00,WeatherDisplay:10.37,2013-08-06 16:14:00,
2013-08-06 12:19:00,72.3,62.0,30.06,North,350,4.6,4.6,70,0.00,SCT,,0.00,WeatherDisplay:10.37,2013-08-06 16:19:00,
2013-08-06 12:24:00,72.5,62.2,30.06,North,350,4.6,4.6,70,0.00,SCT,,0.00,WeatherDisplay:10.37,2013-08-06 16:24:00,
2013-08-06 12:29:00,72.5,62.2,30.06,North,350,4.6,4.6,70,0.00,SCT,,0.00,WeatherDisplay:10.37,2013-08-06 16:29:00,
2013-08-06 12:34:00,72.9,62.5,30.06,North,350,4.6,4.6,70,0.00,SCT,,0.00,WeatherDisplay:10.37,2013-08-06 16:34:00,
2013-08-06 12:39:00,73.0,62.7,30.06,North,350,4.6,4.6,70,0.00,SCT,,0.00,WeatherDisplay:10.37,2013-08-06 16:39:00,
2013-08-06 12:44:00,73.4,63.0,30.06,North,350,4.6,4.6,70,0.00,SCT,,0.00,WeatherDisplay:10.37,2013-08-06 16:44:00,
2013-08-06 12:49:00,73.6,63.2,30.06,North,350,4.6,4.6,70,0.00,SCT,,0.00,WeatherDisplay:10.37,2013-08-06 16:49:00,
2013-08-06 12:54:00,73.9,63.5,30.06,North,350,4.6,4.6,70,0.00,SCT,,0.00,WeatherDisplay:10.37,2013-08-06 16:54:00,
2013-08-06 12:59:00,73.9,63.5,30.06,North,350,4.6,4.6,70,0.00,SCT,,0.00,WeatherDisplay:10.37,2013-08-06 16:59:00,
2013-08-06 13:04:00,74.3,63.9,30.06,North,350,4.6,4.6,70,0.00,SCT,,0.00,WeatherDisplay:10.37,2013-08-06 17:04:00,
2013-08-06 13:09:00,74.5,64.1,30.06,North,350,4.6,4.6,70,0.00,SCT,,0.00,WeatherDisplay:10.37,2013-08-06 17:09:00,
2013-08-06 13:14:00,74.5,64.1,30.06,North,350,4.6,4.6,70,0.00,SCT,,0.00,WeatherDisplay:10.37,2013-08-06 17:14:00,
2013-08-06 13:19:00,74.5,64.1,30.06,North,350,4.6,4.6,70,0.00,SCT,,0.00,WeatherDisplay:10.37,2013-08-06 17:19:00,
2013-08-06 13:24:00,74.7,64.2,30.06,North,350,4.6,4.6,70,0.00,SCT,,0.00,WeatherDisplay:10.37,2013-08-06 17:24:00,
2013-08-06 13:27:00,74.8,64.4,30.06,North,350,4.6,4.6,70,0.00,SCT,,0.00,WeatherDisplay:10.37,2013-08-06 17:27:00,
2013-08-06 13:32:00,75.0,48.4,30.06,North,350,4.6,4.6,39,0.00,BKN,,0.00,WeatherDisplay:10.37,2013-08-06 17:32:00,
2013-08-06 13:37:00,75.2,48.5,30.06,North,350,4.6,4.6,39,0.00,BKN,,0.00,WeatherDisplay:10.37,2013-08-06 17:37:00,
2013-08-06 13:42:00,75.2,48.5,30.06,North,350,4.6,4.6,39,0.00,BKN,,0.00,WeatherDisplay:10.37,2013-08-06 17:42:00,
2013-08-06 13:47:00,75.2,48.5,30.06,North,350,4.6,4.6,39,0.00,BKN,,0.00,WeatherDisplay:10.37,2013-08-06 17:47:00,
2013-08-06 13:52:00,75.6,48.9,30.03,North,350,4.6,4.6,39,0.00,BKN,,0.00,WeatherDisplay:10.37,2013-08-06 17:52:00,
2013-08-06 13:57:00,75.6,48.9,30.03,North,350,4.6,4.6,39,0.00,BKN,,0.00,WeatherDisplay:10.37,2013-08-06 17:57:00,
2013-08-06 14:03:00,75.6,48.2,30.03,North,350,4.6,4.6,38,0.00,BKN,,0.00,WeatherDisplay:10.37,2013-08-06 18:03:00,
2013-08-06 14:08:00,75.6,48.2,30.03,North,350,4.6,4.6,38,0.00,BKN,,0.00,WeatherDisplay:10.37,2013-08-06 18:08:00,
2013-08-06 14:13:00,75.6,48.2,30.03,North,350,4.6,4.6,38,0.00,BKN,,0.00,WeatherDisplay:10.37,2013-08-06 18:13:00,
2013-08-06 14:18:00,75.7,48.3,30.03,North,350,4.6,4.6,38,0.00,BKN,,0.00,WeatherDisplay:10.37,2013-08-06 18:18:00,
2013-08-06 14:23:00,75.7,48.3,30.03,North,350,4.6,4.6,38,0.00,BKN,,0.00,WeatherDisplay:10.37,2013-08-06 18:23:00,
2013-08-06 14:28:00,75.9,48.5,30.03,North,350,4.6,4.6,38,0.00,BKN,,0.00,WeatherDisplay:10.37,2013-08-06 18:28:00,
2013-08-06 14:33:00,75.9,48.5,30.03,North,350,4.6,4.6,38,0.00,BKN,,0.00,WeatherDisplay:10.37,2013-08-06 18:33:00,
2013-08-06 14:38:00,75.9,48.5,30.03,North,350,4.6,4.6,38,0.00,BKN,,0.00,WeatherDisplay:10.37,2013-08-06 18:38:00,
2013-08-06 14:43:00,75.9,48.5,30.03,North,350,4.6,4.6,38,0.00,BKN,,0.00,WeatherDisplay:10.37,2013-08-06 18:43:00,
2013-08-06 14:48:00,75.9,48.5,30.03,North,350,4.6,4.6,38,0.00,BKN,,0.00,WeatherDisplay:10.37,2013-08-06 18:48:00,
2013-08-06 14:53:00,75.9,48.5,30.03,North,350,4.6,4.6,38,0.00,BKN,,0.00,WeatherDisplay:10.37,2013-08-06 18:53:00,
2013-08-06 14:58:00,75.9,48.5,30.03,North,350,4.6,4.6,38,0.00,BKN,,0.00,WeatherDisplay:10.37,2013-08-06 18:58:00,
2013-08-06 15:03:00,75.9,46.3,30.03,SE,130,8.1,8.1,35,0.00,SCT,,0.00,WeatherDisplay:10.37,2013-08-06 19:03:00,
2013-08-06 15:08:00,75.9,46.3,30.03,SE,130,8.1,8.1,35,0.00,SCT,,0.00,WeatherDisplay:10.37,2013-08-06 19:08:00,
2013-08-06 15:13:00,75.9,46.3,30.03,SE,130,8.1,8.1,35,0.00,SCT,,0.00,WeatherDisplay:10.37,2013-08-06 19:13:00,
2013-08-06 15:18:00,75.9,46.3,30.03,SE,130,8.1,8.1,35,0.00,SCT,,0.00,WeatherDisplay:10.37,2013-08-06 19:18:00,
2013-08-06 15:23:00,75.9,46.3,30.03,SE,130,8.1,8.1,35,0.00,SCT,,0.00,WeatherDisplay:10.37,2013-08-06 19:23:00,
2013-08-06 15:28:00,75.9,46.3,30.03,SE,130,8.1,8.1,35,0.00,SCT,,0.00,WeatherDisplay:10.37,2013-08-06 19:28:00,
2013-08-06 15:33:00,75.9,46.3,30.03,SE,130,8.1,8.1,35,0.00,SCT,,0.00,WeatherDisplay:10.37,2013-08-06 19:33:00,
2013-08-06 15:38:00,75.9,46.3,30.03,SE,130,8.1,8.1,35,0.00,SCT,,0.00,WeatherDisplay:10.37,2013-08-06 19:38:00,
2013-08-06 15:43:00,75.9,46.3,30.03,SE,130,8.1,8.1,35,0.00,SCT,,0.00,WeatherDisplay:10.37,2013-08-06 19:43:00,
2013-08-06 15:48:00,75.9,46.3,30.03,SE,130,8.1,8.1,35,0.00,SCT,,0.00,WeatherDisplay:10.37,2013-08-06 19:48:00,
2013-08-06 15:53:00,75.9,46.3,30.03,SE,130,8.1,8.1,35,0.00,SCT,,0.00,WeatherDisplay:10.37,2013-08-06 19:53:00,
2013-08-06 15:58:00,75.9,46.3,30.03,SE,130,8.1,8.1,35,0.00,SCT,,0.00,WeatherDisplay:10.37,2013-08-06 19:58:00,
2013-08-06 16:03:00,75.9,46.3,30.03,SSW,200,6.9,6.9,35,0.00,FEW,,0.00,WeatherDisplay:10.37,2013-08-06 20:03:00,
2013-08-06 16:08:00,75.9,46.3,30.03,SSW,200,6.9,6.9,35,0.00,FEW,,0.00,WeatherDisplay:10.37,2013-08-06 20:08:00,
2013-08-06 16:13:00,76.1,46.5,30.03,SSW,200,6.9,6.9,35,0.00,FEW,,0.00,WeatherDisplay:10.37,2013-08-06 20:13:00,
2013-08-06 16:18:00,76.1,46.5,30.03,SSW,200,6.9,6.9,35,0.00,FEW,,0.00,WeatherDisplay:10.37,2013-08-06 20:18:00,
2013-08-06 16:23:00,76.1,46.5,30.03,SSW,200,6.9,6.9,35,0.00,FEW,,0.00,WeatherDisplay:10.37,2013-08-06 20:23:00,
2013-08-06 16:28:00,76.3,46.6,30.03,SSW,200,6.9,6.9,35,0.00,FEW,,0.00,WeatherDisplay:10.37,2013-08-06 20:28:00,
2013-08-06 16:32:00,76.3,46.6,30.03,SSW,200,6.9,6.9,35,0.00,FEW,,0.00,WeatherDisplay:10.37,2013-08-06 20:32:00,
2013-08-06 16:37:00,76.3,46.6,30.03,SSW,200,6.9,6.9,35,0.00,FEW,,0.00,WeatherDisplay:10.37,2013-08-06 20:37:00,
2013-08-06 16:42:00,76.3,46.6,30.03,SSW,200,6.9,6.9,35,0.00,FEW,,0.00,WeatherDisplay:10.37,2013-08-06 20:42:00,
2013-08-06 16:47:00,76.3,46.6,30.03,SSW,200,6.9,6.9,35,0.00,FEW,,0.00,WeatherDisplay:10.37,2013-08-06 20:47:00,
2013-08-06 16:52:00,76.3,46.6,30.03,SSW,200,6.9,6.9,35,0.00,FEW,,0.00,WeatherDisplay:10.37,2013-08-06 20:52:00,
2013-08-06 16:57:00,76.3,46.6,30.03,SSW,200,6.9,6.9,35,0.00,FEW,,0.00,WeatherDisplay:10.37,2013-08-06 20:57:00,
2013-08-06 17:02:00,76.3,45.1,30.03,SE,140,6.9,6.9,33,0.00,SCT,,0.00,WeatherDisplay:10.37,2013-08-06 21:02:00,
2013-08-06 17:07:00,76.1,44.9,30.03,SE,140,6.9,6.9,33,0.00,SCT,,0.00,WeatherDisplay:10.37,2013-08-06 21:07:00,
2013-08-06 17:12:00,76.1,44.9,30.03,SE,140,6.9,6.9,33,0.00,SCT,,0.00,WeatherDisplay:10.37,2013-08-06 21:12:00,
2013-08-06 17:17:00,76.3,45.1,30.03,SE,140,6.9,6.9,33,0.00,SCT,,0.00,WeatherDisplay:10.37,2013-08-06 21:17:00,
2013-08-06 17:22:00,76.1,44.9,30.03,SE,140,6.9,6.9,33,0.00,SCT,,0.00,WeatherDisplay:10.37,2013-08-06 21:22:00,
2013-08-06 17:27:00,76.1,44.9,30.03,SE,140,6.9,6.9,33,0.00,SCT,,0.00,WeatherDisplay:10.37,2013-08-06 21:27:00,
2013-08-06 17:32:00,76.1,44.9,30.03,SE,140,6.9,6.9,33,0.00,SCT,,0.00,WeatherDisplay:10.37,2013-08-06 21:32:00,
2013-08-06 17:37:00,75.9,44.7,30.03,SE,140,6.9,6.9,33,0.00,SCT,,0.00,WeatherDisplay:10.37,2013-08-06 21:37:00,
2013-08-06 17:42:00,75.7,44.6,30.03,SE,140,6.9,6.9,33,0.00,SCT,,0.00,WeatherDisplay:10.37,2013-08-06 21:42:00,
2013-08-06 17:47:00,75.6,44.4,30.03,SE,140,6.9,6.9,33,0.00,SCT,,0.00,WeatherDisplay:10.37,2013-08-06 21:47:00,
2013-08-06 17:52:00,75.6,44.4,30.03,SE,140,6.9,6.9,33,0.00,SCT,,0.00,WeatherDisplay:10.37,2013-08-06 21:52:00,
2013-08-06 17:57:00,75.6,44.4,30.03,SE,140,6.9,6.9,33,0.00,SCT,,0.00,WeatherDisplay:10.37,2013-08-06 21:57:00,
2013-08-06 18:02:00,75.6,44.4,30.03,SE,140,6.9,6.9,33,0.00,SCT,,0.00,WeatherDisplay:10.37,2013-08-06 22:02:00,
2013-08-06 18:07:00,75.4,44.3,30.00,SE,140,6.9,6.9,33,0.00,SCT,,0.00,WeatherDisplay:10.37,2013-08-06 22:07:00,
2013-08-06 18:12:00,75.4,44.3,30.00,SE,140,6.9,6.9,33,0.00,SCT,,0.00,WeatherDisplay:10.37,2013-08-06 22:12:00,
2013-08-06 18:17:00,75.4,44.3,30.00,SE,140,6.9,6.9,33,0.00,SCT,,0.00,WeatherDisplay:10.37,2013-08-06 22:17:00,
2013-08-06 18:22:00,75.2,44.1,30.03,SE,140,6.9,6.9,33,0.00,SCT,,0.00,WeatherDisplay:10.37,2013-08-06 22:22:00,
2013-08-06 18:27:00,75.2,44.1,30.03,SE,140,6.9,6.9,33,0.00,SCT,,0.00,WeatherDisplay:10.37,2013-08-06 22:27:00,
2013-08-06 18:32:00,75.2,44.1,30.03,SE,140,6.9,6.9,33,0.00,SCT,,0.00,WeatherDisplay:10.37,2013-08-06 22:32:00,
2013-08-06 18:37:00,75.2,44.1,30.03,SE,140,6.9,6.9,33,0.00,SCT,,0.00,WeatherDisplay:10.37,2013-08-06 22:37:00,
2013-08-06 18:42:00,75.0,44.0,30.03,SE,140,6.9,6.9,33,0.00,SCT,,0.00,WeatherDisplay:10.37,2013-08-06 22:42:00,
2013-08-06 18:47:00,74.8,43.8,30.03,SE,140,6.9,6.9,33,0.00,SCT,,0.00,WeatherDisplay:10.37,2013-08-06 22:47:00,
2013-08-06 18:52:00,74.5,43.5,30.03,SE,140,6.9,6.9,33,0.00,SCT,,0.00,WeatherDisplay:10.37,2013-08-06 22:52:00,
2013-08-06 18:57:00,74.1,43.2,30.03,SE,140,6.9,6.9,33,0.00,SCT,,0.00,WeatherDisplay:10.37,2013-08-06 22:57:00,
2013-08-06 19:02:00,73.8,42.9,30.03,SE,140,6.9,6.9,33,0.00,SCT,,0.00,WeatherDisplay:10.37,2013-08-06 23:02:00,
2013-08-06 19:07:00,73.4,42.5,30.03,SE,140,6.9,6.9,33,0.00,SCT,,0.00,WeatherDisplay:10.37,2013-08-06 23:07:00,
2013-08-06 19:12:00,72.9,42.1,30.03,SE,140,6.9,6.9,33,0.00,SCT,,0.00,WeatherDisplay:10.37,2013-08-06 23:12:00,
2013-08-06 19:17:00,72.5,41.7,30.03,SE,140,6.9,6.9,33,0.00,SCT,,0.00,WeatherDisplay:10.37,2013-08-06 23:17:00,
2013-08-06 19:22:00,72.1,41.4,30.06,SE,140,6.9,6.9,33,0.00,SCT,,0.00,WeatherDisplay:10.37,2013-08-06 23:22:00,
2013-08-06 19:27:00,71.8,41.1,30.06,SE,140,6.9,6.9,33,0.00,SCT,,0.00,WeatherDisplay:10.37,2013-08-06 23:27:00,
2013-08-06 19:32:00,71.6,41.0,30.06,SE,140,6.9,6.9,33,0.00,SCT,,0.00,WeatherDisplay:10.37,2013-08-06 23:32:00,
2013-08-06 19:37:00,71.4,40.8,30.06,SE,140,6.9,6.9,33,0.00,SCT,,0.00,WeatherDisplay:10.37,2013-08-06 23:37:00,
2013-08-06 19:42:00,71.2,40.6,30.06,SE,140,6.9,6.9,33,0.00,SCT,,0.00,WeatherDisplay:10.37,2013-08-06 23:42:00,
2013-08-06 19:47:00,70.9,40.3,30.06,SE,140,6.9,6.9,33,0.00,SCT,,0.00,WeatherDisplay:10.37,2013-08-06 23:47:00,
2013-08-06 19:52:00,70.7,40.2,30.03,SE,140,6.9,6.9,33,0.00,SCT,,0.00,WeatherDisplay:10.37,2013-08-06 23:52:00,
2013-08-06 19:57:00,70.5,40.0,30.03,SE,140,6.9,6.9,33,0.00,SCT,,0.00,WeatherDisplay:10.37,2013-08-06 23:57:00,
2013-08-06 20:02:00,70.3,39.9,30.03,SE,140,6.9,6.9,33,0.00,SCT,,0.00,WeatherDisplay:10.37,2013-08-07 00:02:00,
2013-08-06 20:07:00,70.3,48.6,30.06,South,180,4.6,4.6,46,0.00,BKN,,0.00,WeatherDisplay:10.37,2013-08-07 00:07:00,
2013-08-06 20:12:00,70.2,48.4,30.06,South,180,4.6,4.6,46,0.00,BKN,,0.00,WeatherDisplay:10.37,2013-08-07 00:12:00,
2013-08-06 20:17:00,70.0,48.2,30.06,South,180,4.6,4.6,46,0.00,BKN,,0.00,WeatherDisplay:10.37,2013-08-07 00:17:00,
2013-08-06 20:22:00,69.8,48.1,30.03,South,180,4.6,4.6,46,0.00,BKN,,0.00,WeatherDisplay:10.37,2013-08-07 00:22:00,
2013-08-06 20:27:00,69.8,48.1,30.03,South,180,4.6,4.6,46,0.00,BKN,,0.00,WeatherDisplay:10.37,2013-08-07 00:27:00,
2013-08-06 20:32:00,69.8,48.1,30.03,South,180,4.6,4.6,46,0.00,BKN,,0.00,WeatherDisplay:10.37,2013-08-07 00:32:00,
2013-08-06 20:37:00,69.6,47.9,30.03,South,180,4.6,4.6,46,0.00,BKN,,0.00,WeatherDisplay:10.37,2013-08-07 00:37:00,
2013-08-06 20:42:00,69.6,47.9,30.03,South,180,4.6,4.6,46,0.00,BKN,,0.00,WeatherDisplay:10.37,2013-08-07 00:42:00,
2013-08-06 20:47:00,69.4,47.8,30.03,South,180,4.6,4.6,46,0.00,BKN,,0.00,WeatherDisplay:10.37,2013-08-07 00:47:00,
2013-08-06 20:52:00,69.4,47.8,30.03,South,180,4.6,4.6,46,0.00,BKN,,0.00,WeatherDisplay:10.37,2013-08-07 00:52:00,
2013-08-06 20:57:00,69.4,47.8,30.03,South,180,4.6,4.6,46,0.00,BKN,,0.00,WeatherDisplay:10.37,2013-08-07 00:57:00,
2013-08-06 21:02:00,69.3,47.6,30.03,South,180,4.6,4.6,46,0.00,BKN,,0.00,WeatherDisplay:10.37,2013-08-07 01:02:00,
2013-08-06 21:07:00,69.3,47.6,30.03,SE,140,3.5,3.5,46,0.00,BKN,,0.00,WeatherDisplay:10.37,2013-08-07 01:07:00,
2013-08-06 21:12:00,69.3,47.6,30.03,SE,140,3.5,3.5,46,0.00,BKN,,0.00,WeatherDisplay:10.37,2013-08-07 01:12:00,
2013-08-06 21:17:00,69.1,47.4,30.03,SE,140,3.5,3.5,46,0.00,BKN,,0.00,WeatherDisplay:10.37,2013-08-07 01:17:00,
2013-08-06 21:22:00,69.3,47.6,30.03,SE,140,3.5,3.5,46,0.00,BKN,,0.00,WeatherDisplay:10.37,2013-08-07 01:22:00,
2013-08-06 21:27:00,69.3,47.6,30.03,SE,140,3.5,3.5,46,0.00,BKN,,0.00,WeatherDisplay:10.37,2013-08-07 01:27:00,
2013-08-06 21:32:00,69.4,47.8,30.03,SE,140,3.5,3.5,46,0.00,BKN,,0.00,WeatherDisplay:10.37,2013-08-07 01:32:00,
2013-08-06 21:37:00,69.6,47.9,30.06,SE,140,3.5,3.5,46,0.00,BKN,,0.00,WeatherDisplay:10.37,2013-08-07 01:37:00,
2013-08-06 21:42:00,69.8,48.1,30.06,SE,140,3.5,3.5,46,0.00,BKN,,0.00,WeatherDisplay:10.37,2013-08-07 01:42:00,
2013-08-06 21:47:00,70.0,48.2,30.06,SE,140,3.5,3.5,46,0.00,BKN,,0.00,WeatherDisplay:10.37,2013-08-07 01:47:00,
2013-08-06 21:52:00,70.2,48.4,30.03,SE,140,3.5,3.5,46,0.00,BKN,,0.00,WeatherDisplay:10.37,2013-08-07 01:52:00,
2013-08-06 21:57:00,70.2,48.4,30.03,SE,140,3.5,3.5,46,0.00,BKN,,0.00,WeatherDisplay:10.37,2013-08-07 01:57:00,
2013-08-06 22:02:00,70.3,48.6,30.03,SE,140,3.5,3.5,46,0.00,BKN,,0.00,WeatherDisplay:10.37,2013-08-07 02:02:00,
2013-08-06 22:07:00,70.2,48.4,30.06,SE,140,3.5,3.5,46,0.00,BKN,,0.00,WeatherDisplay:10.37,2013-08-07 02:07:00,
2013-08-06 22:12:00,70.2,48.4,30.06,SE,140,3.5,3.5,46,0.00,BKN,,0.00,WeatherDisplay:10.37,2013-08-07 02:12:00,
2013-08-06 22:17:00,70.3,48.6,30.06,SE,140,3.5,3.5,46,0.00,BKN,,0.00,WeatherDisplay:10.37,2013-08-07 02:17:00,
2013-08-06 22:22:00,70.3,48.6,30.06,SE,140,3.5,3.5,46,0.00,BKN,,0.00,WeatherDisplay:10.37,2013-08-07 02:22:00,
2013-08-06 22:27:00,70.3,48.6,30.06,SE,140,3.5,3.5,46,0.00,BKN,,0.00,WeatherDisplay:10.37,2013-08-07 02:27:00,
2013-08-06 22:32:00,70.3,48.6,30.06,SE,140,3.5,3.5,46,0.00,BKN,,0.00,WeatherDisplay:10.37,2013-08-07 02:32:00,
2013-08-06 22:37:00,70.3,48.6,30.06,SE,140,3.5,3.5,46,0.00,BKN,,0.00,WeatherDisplay:10.37,2013-08-07 02:37:00,
2013-08-06 22:42:00,70.3,48.6,30.06,SE,140,3.5,3.5,46,0.00,BKN,,0.00,WeatherDisplay:10.37,2013-08-07 02:42:00,
2013-08-06 22:47:00,70.2,48.4,30.06,SE,140,3.5,3.5,46,0.00,BKN,,0.00,WeatherDisplay:10.37,2013-08-07 02:47:00,
2013-08-06 22:52:00,70.0,49.9,30.06,SSE,160,8.1,8.1,49,0.00,BKN,,0.00,WeatherDisplay:10.37,2013-08-07 02:52:00,
2013-08-06 22:57:00,69.8,49.8,30.06,SSE,160,8.1,8.1,49,0.00,BKN,,0.00,WeatherDisplay:10.37,2013-08-07 02:57:00,
2013-08-06 23:02:00,69.8,49.8,30.06,SSE,160,8.1,8.1,49,0.00,BKN,,0.00,WeatherDisplay:10.37,2013-08-07 03:02:00,
2013-08-06 23:07:00,69.6,53.2,30.06,SSE,160,4.6,4.6,56,0.00,SCT,,0.00,WeatherDisplay:10.37,2013-08-07 03:07:00,
2013-08-06 23:12:00,69.4,53.1,30.06,SSE,160,4.6,4.6,56,0.00,SCT,,0.00,WeatherDisplay:10.37,2013-08-07 03:12:00,
2013-08-06 23:17:00,69.4,53.1,30.06,SSE,160,4.6,4.6,56,0.00,SCT,,0.00,WeatherDisplay:10.37,2013-08-07 03:17:00,
2013-08-06 23:22:00,69.4,53.1,30.06,SSE,160,4.6,4.6,56,0.00,SCT,,0.00,WeatherDisplay:10.37,2013-08-07 03:22:00,
2013-08-06 23:27:00,69.4,53.1,30.06,SSE,160,4.6,4.6,56,0.00,SCT,,0.00,WeatherDisplay:10.37,2013-08-07 03:27:00,
2013-08-06 23:32:00,69.3,52.9,30.06,SSE,160,4.6,4.6,56,0.00,SCT,,0.00,WeatherDisplay:10.37,2013-08-07 03:32:00,
2013-08-06 23:37:00,69.3,52.9,30.06,SSE,160,4.6,4.6,56,0.00,SCT,,0.00,WeatherDisplay:10.37,2013-08-07 03:37:00,
2013-08-06 23:42:00,69.3,52.9,30.06,SSE,160,4.6,4.6,56,0.00,SCT,,0.00,WeatherDisplay:10.37,2013-08-07 03:42:00,
2013-08-06 23:47:00,69.1,52.7,30.06,SSE,160,4.6,4.6,56,0.00,SCT,,0.00,WeatherDisplay:10.37,2013-08-07 03:47:00,
2013-08-06 23:52:00,69.1,52.7,30.06,SSE,160,4.6,4.6,56,0.00,SCT,,0.00,WeatherDisplay:10.37,2013-08-07 03:52:00,
2013-08-06 23:57:00,69.1,52.7,30.06,SSE,160,4.6,4.6,56,0.00,SCT,,0.00,WeatherDisplay:10.37,2013-08-07 03:57:00,